[[{"header":{"parameterUnit":"m.s-1","parameterCategory":1,"la1":30.2991,"la2":30.254,"lo1":-89.0895,"lo2":-89.0444,"dy":0.0017,"dx":0.0017,"nx":28,"ny":28,"refTime":"2024-03-15T03:00:00:Z","depth":0,"parameterNumber":2,"parameterNumberName":"U-component_of_WINDS"},"data":[0,0,0,0,0,0,0,0,0,0,0,0,0,0,0,0,0,0,0,0,0,0,0,0,0,0,0,0,0,0,0,0,0,0,0,0,0,0,0,0,0,0,0,0,0,0,0,0,0,0,0,0,0,0,0,0,0,0,0.0397,0.0397,0,0.0456,0.0457,0.0458,0.0417,0.0415,0.0413,0.0411,0.0477,0.0481,0.0484,0,0,0,0,0,0,0,0,0,0,0,0,0,0.0253,0.0255,0.0397,0.0397,0.0398,0.0456,0.0457,0.0458,0.0417,0.0415,0.0412,0.041,0.0476,0.048,0.0484,0,0,0,0,0,0,0,0,0,0,0,0,0,0.0314,0.0256,0.0397,0.0385,0.0384,0.0456,0.0457,0.0458,0.0417,0.0415,0.0412,0.0409,0.0475,0.048,0.0485,0.0574,0,0,0.0501,0.0503,0,0,0,0,0,0,0,0,0.0311,0.032,0.0386,0.0386,0.0385,0.0426,0.043,0.0497,0.0418,0.0405,0.0411,0.0408,0.0463,0.0469,0.0486,0.0577,0.0579,0.0502,0.0505,0.0507,0.0508,0,0,0,0,0,0,0,0.0307,0.0317,0.042,0.0387,0.0386,0.0378,0.0384,0.0443,0.0449,0.0406,0.0403,0.041,0.0462,0.0481,0.0488,0.058,0.0501,0.0506,0.0509,0.0511,0.0748,0.0751,0,0,0,0,0,0,0.0303,0.0313,0.0419,0.0422,0.034,0.0383,0.0389,0.0416,0.0448,0.045,0.0413,0.0408,0.0474,0.0482,0.049,0.0597,0.0507,0.0512,0.0515,0.0745,0.0749,0.0752,0,0,0,0,0,0,0.03,0.0312,0.0416,0.0367,0.038,0.0388,0.0419,0.0419,0.0438,0.0453,0.0455,0.0431,0.0472,0.0482,0.0553,0.0598,0.0514,0.0519,0.0741,0.0746,0.075,0.081,0,0,0,0,0,0,0.0296,0.0312,0.0344,0.0368,0.0382,0.0477,0.0421,0.0422,0.0446,0.0441,0.0471,0.0473,0.0471,0.0545,0.0558,0.0604,0.0523,0.0737,0.0743,0.0749,0.0805,0.0817,0.0827,0,0,0,0,0,0.0291,0.0359,0.0346,0.0359,0.0423,0.048,0.0488,0.0482,0.045,0.0484,0.0494,0.0472,0.0591,0.0553,0.0567,0.0615,0.0734,0.0742,0.0748,0.0799,0.0814,0.0827,0,0,0,0,0,0,0.0342,0.0362,0.0348,0.0426,0.0451,0.0472,0.0515,0.0498,0.0534,0.0528,0.0521,0.0528,0.0602,0.0615,0.0573,0.0703,0.0658,0.0668,0.0692,0.0706,0.0717,0.0713,0.0527,0,0,0,0,0,0.0362,0.0405,0.0421,0.0489,0.0502,0.0506,0.0531,0.0524,0.0551,0.0562,0.0577,0.0605,0.0649,0.0678,0.0719,0.0806,0.0813,0.0846,0.0857,0.0866,0.0876,0.0924,0.094,0.0775,0.0775,0.0775,0,0,0.0405,0.0421,0.0449,0.0499,0.0518,0.0564,0.0516,0.0566,0.0601,0.057,0.0637,0.065,0.0681,0.076,0.0796,0.0774,0.0923,0.0875,0.0883,0.0887,0.0933,0.0949,0.0963,0.078,0.0779,0.0778,0,0,0.0507,0.0522,0.0581,0.0601,0.0629,0.0632,0.0646,0.067,0.0676,0.0743,0.0721,0.0763,0.0839,0.0862,0.0884,0.0995,0.0977,0.1008,0.1068,0.1115,0.1128,0.1139,0.1181,0.1195,0.1017,0.1017,0.1017,0,0.0557,0.0624,0.0614,0.0666,0.069,0.0662,0.0722,0.0742,0.0784,0.0801,0.0775,0.0869,0.0888,0.0974,0.1,0.1019,0.1036,0.1005,0.1126,0.1138,0.1149,0.1188,0.1203,0.1021,0.1021,0.102,0.102,0,0.0685,0.0731,0.0776,0.0815,0.0843,0.0899,0.0899,0.093,0.0921,0.0926,0.0996,0.1018,0.1063,0.1083,0.1075,0.1167,0.1153,0.1127,0.1081,0.1168,0.1205,0.122,0.1027,0.1025,0.1024,0.1023,0,0,0.0821,0.0853,0.087,0.0888,0.0917,0.0954,0.101,0.1053,0.108,0.1109,0.1157,0.1221,0.1197,0.1222,0.1217,0.1258,0.1347,0.1227,0.1228,0.125,0.1452,0.1472,0.1489,0.1334,0.1337,0.1339,0.145,0,0.0925,0.102,0.1013,0.1104,0.1148,0.1122,0.1171,0.1196,0.1203,0.1243,0.1251,0.1297,0.1261,0.1276,0.1316,0.1327,0.1387,0.1319,0.1381,0.1383,0.1375,0.1508,0.153,0.1633,0.1464,0.1466,0.1468,0,0.106,0.1092,0.1187,0.121,0.1229,0.1272,0.1312,0.1349,0.1377,0.138,0.1407,0.1395,0.1453,0.1405,0.1487,0.144,0.1465,0.1475,0.1479,0.1485,0.1432,0.152,0.1666,0.1682,0.149,0.1488,0.1487,0,0.1152,0.1219,0.1285,0.1301,0.1329,0.1361,0.1375,0.14,0.1426,0.1461,0.1478,0.152,0.1544,0.1577,0.1577,0.1542,0.166,0.1612,0.1666,0.1666,0.1693,0.1691,0.1846,0.1707,0.1706,0.1706,0.1706,0,0.127,0.1329,0.1327,0.1367,0.1433,0.1425,0.1492,0.1502,0.1525,0.1568,0.1549,0.1591,0.1587,0.163,0.1631,0.1699,0.171,0.1715,0.1715,0.1717,0.1717,0.1735,0.1728,0.171,0.1709,0.1708,0.1708,0,0.1384,0.1384,0.1454,0.1475,0.1482,0.153,0.1549,0.1589,0.1593,0.1649,0.1662,0.1671,0.172,0.1723,0.1781,0.1781,0.1864,0.1855,0.1855,0.1854,0.1908,0.1903,0.208,0.2104,0.1948,0.1949,0.195,0,0.146,0.1505,0.153,0.1557,0.1572,0.1616,0.1642,0.1637,0.1666,0.1701,0.1737,0.1784,0.1821,0.1902,0.1915,0.1959,0.1952,0.2011,0.1959,0.1961,0.1955,0.1953,0.1958,0.2022,0.2024,0.2025,0.2026,0,0.1595,0.1593,0.1631,0.167,0.1701,0.1732,0.1761,0.1784,0.1782,0.1816,0.1865,0.1894,0.1952,0.2,0.2043,0.206,0.2044,0.2042,0.2057,0.2061,0.2059,0.2063,0.1884,0.2038,0.2037,0.2036,0.2036,0.2035,0.1693,0.1732,0.1756,0.18,0.182,0.1847,0.1886,0.1895,0.1935,0.1981,0.1975,0.2031,0.2059,0.2115,0.2135,0.2179,0.216,0.2181,0.2187,0.2193,0.2199,0.2051,0.2187,0.2187,0.2187,0.2186,0.2186,0,0.1829,0.1843,0.1883,0.1922,0.1957,0.1936,0.1967,0.1998,0.2046,0.2073,0.211,0.2168,0.2214,0.223,0.2276,0.2309,0.2303,0.2321,0.2319,0.2324,0.2213,0.2196,0.2325,0.2325,0.2325,0.2325,0.2325,0.2325,0.1903,0.1969,0.197,0.2045,0.2059,0.2112,0.2132,0.2157,0.2178,0.2243,0.2281,0.229,0.2314,0.2361,0.2403,0.2407,0.2425,0.2447,0.2448,0.2345,0.2331,0.2318,0.2302,0.2451,0.2451,0.2555,0.2556,0.2557]},{"header":{"parameterUnit":"m.s-1","parameterCategory":1,"la1":30.2991,"la2":30.254,"lo1":-89.0895,"lo2":-89.0444,"dy":0.0017,"dx":0.0017,"nx":28,"ny":28,"refTime":"2024-03-15T03:00:00:Z","depth":0,"parameterNumber":3,"parameterNumberName":"V-component_of_WINDS"},"data":[0,0,0,0,0,0,0,0,0,0,0,0,0,0,0,0,0,0,0,0,0,0,0,0,0,0,0,0,0,0,0,0,0,0,0,0,0,0,0,0,0,0,0,0,0,0,0,0,0,0,0,0,0,0,0,0,0,0,-1.3889,-1.3889,0,-1.3945,-1.3946,-1.3947,-1.4022,-1.4023,-1.4025,-1.4026,-1.408,-1.408,-1.4081,0,0,0,0,0,0,0,0,0,0,0,0,0,-1.3842,-1.3843,-1.3888,-1.3889,-1.389,-1.3945,-1.3946,-1.3947,-1.4022,-1.4023,-1.4025,-1.4026,-1.408,-1.408,-1.4081,0,0,0,0,0,0,0,0,0,0,0,0,0,-1.3877,-1.3843,-1.3888,-1.3934,-1.3939,-1.3945,-1.3946,-1.3947,-1.4022,-1.4023,-1.4025,-1.4027,-1.408,-1.408,-1.4081,-1.4046,0,0,-1.4082,-1.4082,0,0,0,0,0,0,0,0,-1.3875,-1.3878,-1.3927,-1.3931,-1.3936,-1.3979,-1.395,-1.398,-1.4021,-1.399,-1.4026,-1.4028,-1.4045,-1.4048,-1.4055,-1.4048,-1.4051,-1.4082,-1.4082,-1.4083,-1.4083,0,0,0,0,0,0,0,-1.3872,-1.3876,-1.3911,-1.3927,-1.3933,-1.3951,-1.3958,-1.3956,-1.4006,-1.3993,-1.3999,-1.4004,-1.4048,-1.4054,-1.4056,-1.4051,-1.4082,-1.4083,-1.4083,-1.4083,-1.402,-1.4018,0,0,0,0,0,0,-1.3863,-1.3874,-1.3909,-1.3913,-1.391,-1.395,-1.3958,-1.3963,-1.4006,-1.4015,-1.4003,-1.4008,-1.4052,-1.4056,-1.4059,-1.402,-1.4083,-1.4083,-1.4083,-1.4022,-1.4019,-1.4017,0,0,0,0,0,0,-1.3862,-1.3866,-1.3907,-1.3895,-1.3901,-1.3949,-1.3954,-1.3963,-1.397,-1.4014,-1.4023,-1.4,-1.4054,-1.4058,-1.4049,-1.4023,-1.4083,-1.4084,-1.4024,-1.4021,-1.4018,-1.3944,0,0,0,0,0,0,-1.3861,-1.3865,-1.3853,-1.3894,-1.3902,-1.3897,-1.3953,-1.3963,-1.3971,-1.3978,-1.4014,-1.4021,-1.4056,-1.4048,-1.4049,-1.4025,-1.4084,-1.4026,-1.4023,-1.4019,-1.3948,-1.3938,-1.393,0,0,0,0,0,-1.3859,-1.3828,-1.3852,-1.3855,-1.3888,-1.3895,-1.3899,-1.394,-1.3968,-1.3956,-1.3984,-1.402,-1.4026,-1.4046,-1.4048,-1.4024,-1.4028,-1.4024,-1.4019,-1.3953,-1.394,-1.393,0,0,0,0,0,0,-1.3781,-1.3835,-1.3861,-1.3844,-1.3864,-1.3908,-1.3893,-1.3926,-1.3938,-1.3944,-1.3994,-1.4001,-1.3986,-1.4004,-1.4026,-1.3993,-1.4032,-1.4028,-1.3981,-1.397,-1.3961,-1.3956,-1.4084,0,0,0,0,0,-1.3762,-1.3765,-1.3811,-1.3791,-1.3801,-1.3845,-1.385,-1.388,-1.3903,-1.3912,-1.3939,-1.3959,-1.3966,-1.3969,-1.3977,-1.3952,-1.3961,-1.3936,-1.3927,-1.3919,-1.3915,-1.3903,-1.3892,-1.4003,-1.4003,-1.4003,0,0,-1.3723,-1.3752,-1.3751,-1.3777,-1.3796,-1.3797,-1.3852,-1.385,-1.3851,-1.3911,-1.3904,-1.3925,-1.3951,-1.3934,-1.3927,-1.3948,-1.3886,-1.3914,-1.3907,-1.3907,-1.3897,-1.3886,-1.3877,-1.4,-1.4,-1.4001,0,0,-1.3651,-1.3674,-1.3661,-1.368,-1.3709,-1.3739,-1.3736,-1.3775,-1.3791,-1.3786,-1.3831,-1.3832,-1.3842,-1.3859,-1.3869,-1.3805,-1.3838,-1.3806,-1.3757,-1.3745,-1.3736,-1.3728,-1.3705,-1.3696,-1.3802,-1.3801,-1.3801,0,-1.3598,-1.3602,-1.3649,-1.3645,-1.3655,-1.3711,-1.3697,-1.3713,-1.3743,-1.3748,-1.3771,-1.3786,-1.3807,-1.3794,-1.3779,-1.3785,-1.3782,-1.3802,-1.3734,-1.3727,-1.372,-1.3698,-1.369,-1.3797,-1.3798,-1.3798,-1.3799,0,-1.3535,-1.3537,-1.3522,-1.3552,-1.356,-1.3551,-1.3595,-1.3598,-1.3628,-1.3655,-1.3648,-1.3676,-1.3691,-1.369,-1.3719,-1.3682,-1.3694,-1.3725,-1.3766,-1.3705,-1.3685,-1.3677,-1.3791,-1.3793,-1.3794,-1.3795,0,0,-1.3415,-1.3472,-1.3465,-1.348,-1.3517,-1.3519,-1.3512,-1.3529,-1.353,-1.3549,-1.3544,-1.3552,-1.3581,-1.3592,-1.3623,-1.3612,-1.3559,-1.3645,-1.3646,-1.3627,-1.352,-1.3496,-1.3485,-1.3582,-1.3581,-1.358,-1.3517,0,-1.335,-1.3343,-1.3385,-1.3366,-1.3369,-1.3423,-1.3417,-1.3439,-1.3464,-1.3469,-1.3497,-1.3502,-1.354,-1.3547,-1.3539,-1.3567,-1.3538,-1.3573,-1.3577,-1.3577,-1.3568,-1.3475,-1.3449,-1.3389,-1.351,-1.3509,-1.3508,0,-1.3273,-1.329,-1.3272,-1.3311,-1.3313,-1.3307,-1.3326,-1.3331,-1.3356,-1.3376,-1.3388,-1.3424,-1.342,-1.346,-1.3454,-1.3476,-1.348,-1.3495,-1.3493,-1.3494,-1.3538,-1.3473,-1.3371,-1.3361,-1.3496,-1.3497,-1.3498,0,-1.3187,-1.3205,-1.3196,-1.3207,-1.3252,-1.3247,-1.3265,-1.3294,-1.3301,-1.3317,-1.3322,-1.3336,-1.3344,-1.3354,-1.3393,-1.3418,-1.3382,-1.3425,-1.3397,-1.3396,-1.3386,-1.3385,-1.3282,-1.339,-1.339,-1.339,-1.339,0,-1.311,-1.3096,-1.3158,-1.3153,-1.3139,-1.3188,-1.3173,-1.3197,-1.3221,-1.3221,-1.3268,-1.3266,-1.3318,-1.3322,-1.3352,-1.3342,-1.3345,-1.336,-1.3368,-1.3355,-1.3353,-1.3358,-1.3363,-1.3388,-1.3388,-1.3389,-1.3389,0,-1.301,-1.3052,-1.3046,-1.309,-1.3101,-1.3089,-1.3126,-1.3123,-1.3152,-1.3151,-1.3153,-1.3198,-1.3205,-1.3245,-1.3261,-1.3282,-1.326,-1.3277,-1.3252,-1.3257,-1.3226,-1.3228,-1.3121,-1.311,-1.3225,-1.3224,-1.3223,0,-1.2958,-1.2949,-1.2993,-1.2997,-1.3013,-1.3019,-1.3027,-1.3074,-1.3081,-1.311,-1.3103,-1.3114,-1.3125,-1.3134,-1.3167,-1.318,-1.3196,-1.3158,-1.3198,-1.3186,-1.3195,-1.3195,-1.3194,-1.3149,-1.3148,-1.3146,-1.3145,0,-1.286,-1.2881,-1.2892,-1.291,-1.2918,-1.2934,-1.2953,-1.2953,-1.3006,-1.301,-1.3019,-1.3028,-1.3045,-1.3055,-1.3073,-1.3091,-1.3126,-1.3133,-1.3127,-1.3113,-1.3098,-1.3105,-1.3227,-1.3135,-1.3136,-1.3137,-1.3137,-1.3138,-1.2782,-1.2777,-1.2807,-1.2817,-1.2837,-1.2853,-1.2852,-1.2882,-1.2891,-1.2909,-1.2937,-1.2941,-1.2967,-1.2996,-1.3011,-1.3015,-1.3035,-1.3027,-1.3024,-1.3021,-1.3014,-1.3099,-1.3019,-1.3019,-1.3019,-1.302,-1.302,0,-1.2686,-1.2709,-1.2718,-1.2743,-1.2751,-1.2786,-1.2808,-1.2812,-1.2816,-1.2839,-1.2849,-1.2859,-1.2869,-1.2904,-1.2918,-1.2914,-1.2931,-1.2916,-1.2916,-1.292,-1.2996,-1.2999,-1.2903,-1.2903,-1.2903,-1.2903,-1.2903,-1.2903,-1.2637,-1.263,-1.2655,-1.2658,-1.2681,-1.2687,-1.2697,-1.2712,-1.273,-1.2739,-1.2749,-1.2772,-1.2799,-1.2815,-1.2826,-1.2836,-1.2838,-1.2818,-1.2833,-1.2903,-1.2914,-1.2925,-1.2929,-1.2818,-1.2818,-1.2757,-1.2756,-1.2756]}]]